Regional Weather Roundup
Issued by NWS

Home | Current Version | Previous Version | Text Only | Print | Product List | Glossary Off
Versions: 1 2 3 4 5 6 7 8 9 10 11 12 13 14 15 16 17 18 19 20 21 22 23 24 25 26 27 28 29 30 31 32 33 34 35 36 37 38 39 40 41 42 43 44 45 46 47 48 49 50

000
ASUS43 KBIS 170210
RWRND

NORTH DAKOTA REGIONAL WEATHER ROUNDUP
NATIONAL WEATHER SERVICE BISMARCK ND
800 PM CST MON JAN 16 2017

NOTE: "FAIR" INDICATES FEW OR NO CLOUDS BELOW 12,000 FEET WITH NO
SIGNIFICANT WEATHER AND/OR OBSTRUCTIONS TO VISIBILITY.


NDZ001>003-009>011-017-170300-
NORTHWEST NORTH DAKOTA

CITY           SKY/WX    TMP DP  RH WIND       PRES   REMARKS
WILLISTON      FAIR      11   8  88 SW5       30.08S WCI   3
MINOT          FAIR      19  14  81 SW5       30.04S WCI  12
$$

NDZ018>021-031>035-040>046-170300-
SOUTHWEST NORTH DAKOTA

CITY           SKY/WX    TMP DP  RH WIND       PRES   REMARKS
BISMARCK       FAIR      13   4  67 W5        30.08F WCI   5
DICKINSON      FAIR      16  11  80 W14       30.03F WCI   2
GARRISON         N/A     12   7  80 CALM      30.06S
HETTINGER ARPT CLEAR     10   6  84 NW6       30.07F WCI   0
$$

NDZ004>008-012>016-024-026-027-054-170300-
NORTHEAST NORTH DAKOTA

CITY           SKY/WX    TMP DP  RH WIND       PRES   REMARKS
GRAND FORKS    CLOUDY     5   1  83 S6        30.04S WCI  -6
GRND FRKS AFB  CLOUDY     9   4  80 CALM      30.03F
$$

NDZ022-023-025-028>030-036>039-047>053-170300-
SOUTHEAST NORTH DAKOTA

CITY           SKY/WX    TMP DP  RH WIND       PRES   REMARKS
FARGO          CLEAR      9   6  88 S6        30.05F WCI  -1
JAMESTOWN      FAIR      11   8  88 NW5       30.02S WCI   3
$$





USA.gov is the U.S. government's official web portal to all federal, state and local government web resources and services.